This is the latest recevied weather packets stored in our database for station/object KC7UNY-13. If no packets are shown the sender has not sent any weather packets the latest 1 day(s).
| Time | Temp. | Humidity | Pressure | Rain* | Wind** | Luminosity | Snow |
|---|---|---|---|---|---|---|---|
| 1778038082 | 21.67° C | 32% | 1011.6 hPa | 0 mm | - | 0 W/m² | - |
| 1778037779 | 21.67° C | 31% | 1011.5 hPa | 0 mm | - | 0 W/m² | - |
| 1778037475 | 21.67° C | 30% | 1011.6 hPa | 0 mm | - | 0 W/m² | - |
| 1778037173 | 21.67° C | 30% | 1011.4 hPa | 0 mm | - | 0 W/m² | - |
| 1778036871 | 22.22° C | 30% | 1011.3 hPa | 0 mm | - | 0 W/m² | - |
| 1778036265 | 22.22° C | 30% | 1011.3 hPa | 0 mm | - | 0 W/m² | - |
| 1778035961 | 22.22° C | 30% | 1011.1 hPa | 0 mm | - | 0 W/m² | - |
| 1778035658 | 22.22° C | 30% | 1011.1 hPa | 0 mm | - | 0 W/m² | - |
| 1778035355 | 22.22° C | 29% | 1010.9 hPa | 0 mm | - | 0 W/m² | - |
| 1778035051 | 22.22° C | 29% | 1010.9 hPa | 0 mm | - | 0 W/m² | - |
| 1778034748 | 22.22° C | 29% | 1010.9 hPa | 0 mm | - | 0 W/m² | - |
| 1778034445 | 22.78° C | 28% | 1010.6 hPa | 0 mm | - | 0 W/m² | - |
| 1778034143 | 22.78° C | 28% | 1010.7 hPa | 0 mm | - | 1 W/m² | - |
| 1778033841 | 22.78° C | 28% | 1010.4 hPa | 0 mm | - | 1 W/m² | - |
| 1778033538 | 22.78° C | 28% | 1010.4 hPa | 0 mm | - | 3 W/m² | - |
| 1778033234 | 22.78° C | 28% | 1010.3 hPa | 0 mm | - | 4 W/m² | - |
| 1778032327 | 23.33° C | 28% | 1010.1 hPa | 0 mm | - | 13 W/m² | - |
| 1778032024 | 23.33° C | 28% | 1010.2 hPa | 0 mm | - | 16 W/m² | - |
| 1778031719 | 23.33° C | 28% | 1010.3 hPa | 0 mm | - | 21 W/m² | - |
| 1778031418 | 23.33° C | 28% | 1010.2 hPa | 0 mm | - | 26 W/m² | - |
| 1778030811 | 23.89° C | 29% | 1010.1 hPa | 0 mm | - | 29 W/m² | - |
| 1778030205 | 23.89° C | 28% | 1010.1 hPa | 0 mm | - | 41 W/m² | - |
| 1778029901 | 23.89° C | 29% | 1009.9 hPa | 0 mm | - | 49 W/m² | - |
| 1778029600 | 23.89° C | 29% | 1009.9 hPa | 0 mm | - | 46 W/m² | - |
| 1778029297 | 23.89° C | 29% | 1009.9 hPa | 0 mm | - | 83 W/m² | - |
* Rain latest hour (hover to see other rain measurements)
** Current wind speed in m/s (hover to see current wind gust speed)